Weather History for Liberia, Costa Rica

Change the Weather History Date:

Tuesday, May 7, 2013

  Actual Average Record
Temperature  
Mean Temperature 82 °F -  
Max Temperature 95 °F 89 °F 96 °F (1998)
Min Temperature 70 °F 76 °F 70 °F (2013)
Cooling Degree Days 18    
Growing Degree Days 32 (Base 50)    
Moisture  
Dew Point 61 °F    
Average Humidity 40    
Maximum Humidity 69    
Minimum Humidity 23    
Precipitation  
Precipitation 0.00 in - - ()
Sea Level Pressure  
Sea Level Pressure 29.90 in    
Wind  
Wind Speed 10 mph ()    
Max Wind Speed 17 mph    
Max Gust Speed 29 mph    
Visibility 8.8 miles    
Events      
Averages and records for this station are not official NWS values.
T = Trace of Precipitation, MM = Missing Value Source: Averaged Metar Reports

Daily Weather History Graph

Daily Weather History Graph

Search for Another Location

Airport:

Trip Planner

Search our weather history database for the weather conditions in past years. The results will help you decide how hot, cold, wet, or windy it might be!

Date:

Astronomy

May. 07, 2013 Rise Set
Actual Time 5:22 AM CST 5:55 PM CST
Civil Twilight 5:00 AM CST 6:17 PM CST
Nautical Twilight 4:34 AM CST 6:43 PM CST
Astronomical Twilight 4:08 AM CST 7:09 PM CST
Moon 3:33 AM CST (5/7) 4:11 PM CST (5/7)
Length of Visible Light 13h 17m
Length of Day
12h 33m
Waning Crescent, 5% of the Moon is Illuminated
May 7
Waning Crescent
May 9
New
May 17
First Quarter
May 24
Full
May 31
Last Quarter

Hourly Weather History & Observations

Time (CST) Temp. Heat Index Dew Point Humidity Pressure Visibility Wind Dir Wind Speed Gust Speed Precip Events Conditions
6:00 AM 75 °F - 64 °F 60% 29.95 in 12 mi ENE 6.9 mph - -   Clear
6:00 AM 75.2 °F - 64.4 °F 69% 29.94 in - ENE 6.9 mph - N/A   Clear
7:00 AM 80.6 °F 82.3 °F 64.4 °F 58% 29.94 in - East 6.9 mph - N/A   Clear
8:00 AM 84.2 °F 85.6 °F 64.4 °F 51% 29.95 in - East 11.5 mph - N/A   Clear
9:00 AM 86 °F - 63 °F 36% 29.97 in 12 mi ENE 13.8 mph - -   Clear
9:00 AM 86.0 °F 86.6 °F 62.6 °F 45% 29.95 in - ENE 13.8 mph - N/A   Clear
10:00 AM 87.8 °F 89.4 °F 64.4 °F 46% 29.95 in - ENE 17.3 mph 28.8 mph N/A   Clear
11:00 AM 89.6 °F 91.1 °F 64.4 °F 43% 29.94 in 6.2 mi ENE 17.3 mph - N/A   Scattered Clouds
12:00 PM 91 °F - 63 °F 29% 29.94 in 12 mi NE 17.3 mph - -   Scattered Clouds
12:00 PM 91.4 °F 92.1 °F 62.6 °F 38% 29.92 in 6.2 mi NE 17.3 mph - N/A   Scattered Clouds
1:00 PM 93.2 °F 94.1 °F 62.6 °F 36% 29.89 in 6.2 mi NE 13.8 mph - N/A   Scattered Clouds
2:00 PM 93.2 °F 94.1 °F 62.6 °F 36% 29.86 in 6.2 mi NE 13.8 mph - N/A   Scattered Clouds
3:00 PM 94 °F - 61 °F 23% 29.85 in 12 mi NE 10.4 mph - -   Scattered Clouds
3:00 PM 93.2 °F 93.3 °F 60.8 °F 34% 29.83 in 6.2 mi NE 10.4 mph - N/A   Scattered Clouds
4:00 PM 95.0 °F 95.2 °F 60.8 °F 32% 29.83 in 6.2 mi NE 15.0 mph - N/A   Scattered Clouds
5:00 PM 91.4 °F 90.7 °F 59.0 °F 34% 29.84 in - ENE 16.1 mph - N/A   Clear
6:00 PM 88 °F - 56 °F 24% 29.88 in 12 mi NE 13.8 mph - -   Clear
6:00 PM 87.8 °F 86.5 °F 57.2 °F 35% 29.87 in - NE 13.8 mph - N/A   Clear
7:00 PM 84.2 °F 83.0 °F 55.4 °F 37% 29.88 in - NE 12.7 mph - N/A   Clear
8:00 PM 82.4 °F 81.7 °F 55.4 °F 39% 29.92 in - NE 10.4 mph - N/A   Clear